FW2522 Weather Reports


time (UTC)temp
F
wind
direction
speed
knots
gust
knots
rain 1hr
in
rain 24hr
in
rain mn
in
humidity
%
barometer
mb
20260505041559 61 360 1.7 5.2 0.00 0.00 0.00 41 1015.7
20260505040056 61 360 0.9 2.6 0.00 0.00 0.00 39 1015.8
20260505034552 62 360 0.9 3.5 0.00 0.00 0.00 38 1016.0
20260505033049 62 360 0.9 3.5 0.00 0.00 0.00 37 1015.9
20260505031555 63 360 0.9 2.6 0.00 0.00 0.00 37 1015.9
20260505030048 63 360 0.9 5.2 0.00 0.00 0.00 38 1016.0
20260505024556 62 360 0.9 2.6 0.00 0.00 0.00 40 1015.7
20260505023013 63 360 0.0 2.6 0.00 0.00 0.00 36 1015.6
20260505021510 64 360 0.9 1.7 0.00 0.00 0.00 34 1015.4
20260505020005 65 360 0.0 2.6 0.00 0.00 0.00 33 1015.4
20260505014504 65 360 0.0 1.7 0.00 0.00 0.00 33 1015.4
20260505013001 66 360 0.0 1.7 0.00 0.00 0.00 31 1015.3
20260505011606 68 360 0.0 1.7 0.00 0.00 0.00 30 1015.3
20260505010055 68 360 0.9 3.5 0.00 0.00 0.00 29 1015.0
20260505004550 69 360 0.9 3.5 0.00 0.00 0.00 26 1014.8
20260505003047 70 360 0.9 3.5 0.00 0.00 0.00 25 1014.8
20260505001545 71 360 1.7 4.3 0.00 0.00 0.00 24 1014.6
20260505000054 71 360 0.9 5.2 0.00 0.00 0.00 24 1014.6
20260504234546 72 360 1.7 7.0 0.00 0.00 0.00 23 1014.4
20260504233050 73 360 0.9 4.3 0.00 0.00 0.00 22 1014.3
20260504231534 73 360 0.9 5.2 0.00 0.00 0.00 21 1014.2
20260504230036 74 360 1.7 7.8 0.00 0.00 0.00 21 1014.1
20260504224528 74 360 1.7 3.5 0.00 0.00 0.00 21 1014.1
20260504223039 74 360 3.5 9.6 0.00 0.00 0.00 20 1014.1
20260504221527 75 234 2.6 7.0 0.00 0.00 0.00 19 1014.1
20260504220022 76 220 3.5 7.0 0.00 0.00 0.00 21 1014.2
20260504214553 76 169 2.6 7.8 0.00 0.00 0.00 21 1014.2
20260504213100 75 189 2.6 8.7 0.00 0.00 0.00 20 1014.3
20260504211528 75 221 2.6 7.8 0.00 0.00 0.00 20 1014.2
20260504210017 76 219 3.5 8.7 0.00 0.00 0.00 18 1014.4
20260504204531 77 236 2.6 7.8 0.00 0.00 0.00 18 1014.5
20260504203015 77 207 1.7 8.7 0.00 0.00 0.00 20 1014.6
20260504201507 77 242 5.2 8.7 0.00 0.00 0.00 17 1014.8
20260504200005 77 204 4.3 8.7 0.00 0.00 0.00 19 1015.0
20260504194603 77 219 2.6 7.8 0.00 0.00 0.00 22 1015.2
20260504193057 77 242 3.5 7.8 0.00 0.00 0.00 21 1015.4
20260504191558 76 162 2.6 7.8 0.00 0.00 0.00 20 1015.4
20260504190052 75 196 2.6 9.6 0.00 0.00 0.00 18 1015.6
20260504184520 76 188 0.9 6.1 0.00 0.00 0.00 20 1015.8
20260504183018 75 252 3.5 8.7 0.00 0.00 0.00 21 1016.2
20260504181515 74 203 2.6 7.0 0.00 0.00 0.00 22 1016.2
20260504180012 74 150 1.7 7.8 0.00 0.00 0.00 25 1016.5
20260504174508 73 172 0.9 7.0 0.00 0.00 0.00 23 1016.4
20260504173007 73 82 3.5 8.7 0.00 0.00 0.00 23 1016.6
20260504171504 72 81 2.6 6.1 0.00 0.00 0.00 24 1016.8
20260504081510 43 360 0.0 0.0 0.00 0.00 0.00 52 1017.6